Temp
62 61 57 57 45 41 38 45 53 55 58 65 67 64 62 62 62 52 70 73 76 75 75 74 75 76 76 76 76 75 76 76 77 76 76 76 76 76 77 76 76 77 77 77 77 77 77 75 75
57 63 57 50 38 32 38 50 52 58 64 66 67 66 63 59 66 66 66 73 76 76 76 74 73 75 76 76 75 75 76 76 76 76 76 76 76 76 76 76 76 77 78 77 77 77 76 74 74
61 61 48 43 37 37 38 50 55 60 65 60 62 66 63 58 65 65 68 72 74 72 75 74 72 75 76 76 75 75 75 75 76 76 76 76 76 76 76 75 76 76 77 77 77 76 74 74 74
57 53 49 39 38 42 48 52 57 58 62 65 61 58 60 63 64 64 70 71 69 69 71 72 72 75 76 75 76 75 75 75 76 76 76 76 76 76 75 75 75 75 76 77 77 75 74 73 73
53 47 37 35 39 46 53 56 56 55 53 56 61 56 55 62 66 67 67 69 66 67 66 69 69 74 75 75 76 75 75 75 75 75 75 76 75 75 75 75 75 75 76 77 76 74 73 73 73
44 43 32 31 38 48 52 55 54 53 55 56 55 53 54 63 64 64 66 63 64 65 65 66 64 65 70 74 75 74 74 74 75 75 75 75 75 74 74 74 75 75 75 75 74 74 73 72 72
41 36 30 33 37 42 49 55 47 47 49 51 54 49 54 58 63 63 63 64 63 63 64 63 63 63 63 66 69 72 73 73 73 74 74 74 73 73 73 73 74 75 75 74 73 72 72 72 71
43 38 32 32 37 40 50 51 52 49 49 55 56 47 46 56 63 64 62 63 62 60 60 60 62 61 61 65 65 66 70 70 71 71 70 69 69 70 70 69 71 74 74 73 72 71 71 71 71
48 32 28 34 36 41 49 46 52 53 49 51 54 50 56 62 61 59 57 57 60 62 59 58 60 61 61 63 64 63 65 66 67 67 65 65 71 70 68 67 69 72 72 73 72 72 70 69 68
41 30 35 43 40 40 45 44 45 46 45 46 49 56 59 59 56 54 54 54 54 57 58 56 56 58 61 62 61 62 67 69 69 69 68 70 70 70 71 66 66 68 69 72 71 71 68 64 64
42 35 43 46 47 46 44 43 46 42 39 43 45 49 53 53 53 53 53 53 55 55 58 57 56 56 57 59 58 59 60 67 68 68 67 69 69 67 69 69 67 65 64 70 70 69 65 64 63
36 44 45 46 47 44 41 44 42 43 43 49 49 50 51 51 52 52 52 54 54 55 56 58 56 56 56 56 57 58 59 61 67 67 68 68 67 67 68 68 67 63 65 63 66 63 63 64 63
37 41 45 45 45 44 46 41 40 42 46 49 51 53 51 51 52 53 54 55 55 53 55 56 55 55 56 55 57 57 56 58 63 68 68 70 68 67 67 68 68 65 65 63 62 63 63 62 63
41 41 41 43 43 44 42 42 40 43 47 47 50 50 50 51 52 53 53 54 55 56 55 57 56 56 56 54 56 57 57 59 61 65 68 70 69 67 66 67 67 66 66 62 65 63 62 62 62
42 34 38 40 42 40 45 36 37 45 47 45 45 46 49 51 52 51 53 54 56 56 56 56 55 56 55 55 55 57 59 61 61 63 67 69 69 67 66 64 65 66 64 62 63 62 62 61 63
34 32 26 38 41 43 43 27 40 45 46 43 42 42 46 48 51 53 54 54 56 55 56 56 59 57 55 54 54 56 59 61 62 65 67 67 66 66 65 64 64 65 64 62 61 61 60 60 61
30 22 25 29 40 40 37 31 39 46 44 40 38 39 40 42 46 48 51 53 55 57 56 55 55 54 55 54 54 56 60 61 62 64 65 65 65 64 63 63 63 65 65 63 61 60 60 59 59
23 24 26 25 33 34 30 29 35 34 37 35 32 32 34 36 39 43 46 51 53 54 56 55 55 55 55 53 53 53 58 62 63 64 66 66 64 64 63 62 62 65 64 61 60 59 59 60 59
32 26 24 28 35 28 28 30 30 30 33 29 29 29 30 32 37 41 43 47 51 52 54 55 54 54 52 50 50 54 56 61 62 63 64 64 63 63 62 61 61 60 61 62 61 58 58 57 59
30 24 22 28 34 31 26 26 26 31 30 30 28 27 28 30 33 37 41 43 46 49 50 53 54 54 53 52 53 57 57 61 62 62 62 64 64 63 62 61 60 61 60 59 60 59 56 56 57
27 23 22 22 28 30 25 21 23 30 32 30 30 29 29 29 31 37 42 40 44 47 48 53 54 54 54 54 55 57 58 60 59 60 61 62 62 62 61 61 61 61 61 60 59 59 58 54 54
17 29 27 25 20 13 25 8 20 25 25 24 25 25 26 28 32 37 40 41 43 47 48 51 52 53 55 55 55 56 56 57 58 60 60 61 62 61 61 61 60 60 60 58 58 58 58 56 54
18 28 27 24 20 20 22 14 15 22 18 18 22 23 25 28 30 34 37 41 46 48 46 47 49 50 51 53 56 56 58 58 59 59 56 52 49 52 60 60 59 57 55 51 51 51 49 50 48
30 23 29 27 19 9 19 17 12 12 14 17 20 22 24 26 29 34 37 40 43 45 48 49 46 46 47 49 50 52 52 51 48 48 44 43 44 44 45 47 46 46 45 45 44 43 43 42 41
24 12 -0 5 6 12 24 15 12 17 17 16 16 19 22 25 27 31 32 34 37 40 41 44 44 42 43 44 44 45 45 45 42 42 41 40 39 39 39 41 40 40 40 40 40 38 37 37 35
20 9 -3 -6 3 9 24 10 13 19 19 18 18 20 22 24 27 28 30 31 33 35 35 37 38 39 40 40 41 41 41 40 39 39 37 37 36 36 37 37 37 37 37 36 35 34 33 33 32
17 12 23 4 10 8 15 19 21 24 16 16 14 19 19 22 24 26 28 28 30 32 33 33 34 35 37 37 37 37 38 37 35 35 35 34 34 35 34 34 33 32 32 32 32 30 28 28 28
23 25 11 12 -5 -6 7 7 4 9 8 11 10 14 17 20 23 25 26 27 29 30 31 32 32 31 32 33 34 33 33 32 32 32 30 30 30 31 30 30 30 29 29 30 29 28 27 27 26
17 12 16 18 13 -0 -2 -2 9 8 9 7 10 15 16 18 20 23 25 26 26 28 28 28 29 29 30 30 30 30 29 30 30 29 29 28 29 29 28 28 27 27 27 28 27 27 27 25 25
23 8 13 8 10 14 11 9 16 12 11 11 12 16 18 20 20 22 23 24 24 25 26 26 27 27 28 31 31 30 30 29 28 28 28 28 27 28 28 28 27 27 27 28 26 25 25 24 23
MSLP
1013.85 1013.38 1013.53 1013.51 1014.55 1013.95 1012.79 1011.45 1009.86 1008.79 1007.59 1005.98 1005.56 1005.60 1005.75 1006.17 1006.52 1008.35 1008.34 1008.02 1007.61 1007.69 1008.06 1008.35 1008.47 1008.65 1008.95 1009.22 1009.60 1009.90 1010.23 1010.64 1011.10 1011.53 1011.79 1011.91 1012.28 1012.31 1013.04 1013.34 1013.58 1013.80 1014.25 1014.67 1014.94 1015.12 1015.33 1015.83 1016.15
1013.96 1013.62 1013.53 1014.06 1014.61 1013.78 1011.84 1010.39 1009.53 1007.96 1006.85 1006.03 1005.40 1005.18 1005.73 1006.90 1007.24 1008.32 1008.49 1008.24 1007.89 1007.51 1007.87 1008.43 1008.61 1008.71 1008.88 1009.20 1009.59 1010.01 1010.24 1010.56 1011.03 1011.46 1011.88 1012.03 1012.40 1012.57 1012.60 1013.31 1013.43 1013.96 1014.19 1014.49 1014.85 1015.16 1015.39 1015.72 1016.11
1013.82 1013.76 1014.51 1014.35 1013.81 1012.36 1011.14 1009.53 1008.74 1007.81 1006.80 1006.33 1005.70 1005.44 1006.21 1008.20 1008.26 1008.91 1009.01 1008.57 1008.54 1008.31 1007.72 1008.17 1008.61 1008.65 1008.76 1008.98 1009.40 1009.86 1010.34 1010.57 1010.96 1011.38 1011.81 1012.10 1012.43 1012.58 1012.96 1013.18 1013.56 1013.61 1014.39 1014.51 1014.76 1015.11 1015.53 1015.72 1015.96
1014.25 1014.33 1014.61 1013.99 1012.88 1011.80 1010.75 1009.49 1008.69 1007.78 1006.96 1006.36 1006.49 1006.69 1007.79 1008.73 1008.94 1009.48 1009.23 1008.88 1008.82 1008.97 1008.44 1007.99 1008.50 1008.49 1008.52 1008.84 1009.21 1009.59 1009.96 1010.54 1010.99 1011.21 1011.63 1012.05 1012.40 1012.58 1012.91 1013.27 1013.52 1013.83 1014.12 1014.49 1014.79 1015.09 1015.58 1015.62 1016.02
1014.36 1014.87 1015.16 1014.10 1012.84 1011.72 1010.54 1009.62 1008.73 1008.05 1007.38 1007.19 1007.11 1007.55 1008.72 1009.59 1009.31 1009.33 1009.37 1009.30 1009.28 1009.26 1009.22 1009.11 1009.08 1008.35 1008.34 1008.57 1008.98 1009.29 1009.87 1010.21 1010.72 1011.25 1011.58 1011.86 1012.33 1012.67 1013.01 1013.21 1013.49 1013.84 1014.03 1014.48 1014.92 1015.18 1015.42 1015.96 1015.94
1015.34 1015.22 1015.30 1014.47 1013.07 1011.73 1010.61 1009.96 1009.16 1008.78 1008.14 1007.65 1007.91 1008.34 1009.63 1009.77 1009.44 1009.69 1009.42 1009.90 1009.74 1009.54 1009.53 1009.55 1009.57 1009.46 1008.97 1008.47 1008.55 1009.03 1009.55 1010.07 1010.42 1010.99 1011.27 1011.66 1012.03 1012.57 1012.94 1013.24 1013.48 1013.65 1014.04 1014.53 1014.92 1015.40 1015.58 1016.01 1016.15
1015.44 1015.72 1015.13 1014.26 1013.05 1011.97 1010.99 1009.90 1009.40 1009.02 1008.79 1008.83 1008.82 1009.11 1009.70 1009.39 1009.33 1009.51 1009.44 1009.44 1009.94 1009.90 1009.55 1009.64 1009.83 1009.83 1009.89 1009.58 1008.75 1008.80 1009.33 1009.74 1010.20 1010.61 1010.98 1011.28 1011.66 1012.20 1012.81 1013.14 1013.53 1013.64 1014.01 1014.60 1014.99 1015.42 1015.74 1016.03 1016.34
1015.08 1015.42 1014.87 1014.14 1013.51 1011.90 1011.15 1010.55 1009.89 1009.37 1009.14 1009.01 1008.92 1009.42 1009.75 1009.47 1009.44 1009.05 1009.41 1009.41 1009.73 1010.22 1010.13 1009.93 1009.96 1010.17 1010.24 1010.06 1009.37 1009.04 1008.84 1009.42 1009.86 1010.32 1010.79 1011.10 1011.37 1011.96 1012.44 1013.02 1013.40 1013.65 1014.01 1014.52 1015.00 1015.44 1015.79 1016.02 1016.35
1014.76 1015.66 1015.16 1014.33 1013.75 1012.60 1011.99 1011.78 1010.67 1010.28 1010.14 1009.77 1009.48 1009.60 1009.52 1008.99 1009.57 1009.65 1009.71 1009.87 1009.88 1009.96 1010.21 1010.59 1010.19 1010.28 1010.28 1010.35 1009.98 1009.63 1009.04 1009.09 1009.61 1010.06 1010.69 1011.09 1011.43 1011.82 1012.21 1012.71 1013.15 1013.46 1013.79 1014.35 1014.79 1015.39 1015.95 1016.13 1016.39
1014.87 1015.36 1014.48 1013.72 1013.74 1013.42 1012.91 1012.59 1012.20 1011.48 1011.23 1010.88 1010.59 1010.13 1009.57 1009.05 1009.56 1010.38 1010.57 1010.40 1010.31 1010.44 1010.26 1010.44 1010.52 1010.26 1010.33 1010.26 1010.52 1010.09 1009.03 1009.19 1009.40 1009.93 1010.51 1010.93 1011.35 1011.77 1012.10 1012.41 1013.10 1013.28 1013.58 1013.96 1014.71 1015.20 1015.83 1016.27 1016.55
1014.69 1014.68 1014.47 1013.79 1013.40 1013.36 1013.20 1012.86 1012.56 1012.34 1011.67 1011.59 1011.30 1011.08 1010.71 1010.15 1010.17 1010.27 1010.48 1010.65 1010.63 1010.46 1010.39 1010.12 1010.43 1010.32 1010.24 1010.34 1010.50 1010.30 1010.06 1009.23 1009.13 1009.52 1010.20 1010.64 1011.18 1011.71 1012.09 1012.25 1012.68 1013.34 1013.65 1013.86 1014.37 1014.83 1015.48 1016.02 1016.36
1015.32 1014.58 1014.48 1013.92 1013.63 1013.49 1013.52 1013.40 1013.06 1012.71 1012.13 1011.84 1011.64 1011.32 1010.92 1010.63 1010.55 1010.75 1010.68 1010.50 1010.54 1010.40 1010.38 1009.93 1009.92 1010.25 1010.13 1010.22 1010.35 1010.69 1009.56 1009.58 1009.03 1009.08 1009.64 1010.21 1010.86 1011.36 1011.81 1012.02 1012.64 1013.10 1013.29 1013.81 1014.18 1014.84 1015.29 1015.66 1015.98
1015.36 1014.92 1014.63 1014.13 1013.86 1013.73 1013.56 1013.51 1013.46 1012.89 1012.47 1011.91 1011.58 1011.26 1011.07 1010.85 1010.51 1010.13 1010.17 1010.05 1010.04 1010.30 1010.17 1009.78 1009.58 1009.89 1009.95 1010.04 1010.08 1009.81 1009.74 1009.94 1008.93 1008.77 1008.95 1009.58 1010.28 1010.90 1011.28 1011.60 1012.28 1012.95 1013.24 1013.54 1014.16 1014.67 1015.23 1015.53 1015.86
1015.67 1015.28 1014.86 1014.35 1013.94 1013.57 1013.56 1013.25 1013.35 1012.78 1012.10 1012.12 1011.72 1011.26 1010.96 1010.76 1010.59 1010.21 1010.10 1010.09 1010.03 1009.91 1010.05 1009.56 1009.49 1009.56 1009.69 1009.83 1009.89 1009.70 1008.88 1009.67 1009.05 1008.78 1008.51 1008.74 1009.43 1010.21 1011.00 1011.46 1011.85 1012.54 1012.91 1013.43 1013.73 1014.41 1015.06 1015.41 1015.69
1015.99 1015.68 1015.09 1014.23 1013.89 1013.51 1013.08 1013.07 1013.08 1012.30 1012.18 1012.10 1011.75 1011.37 1011.11 1010.68 1010.28 1010.14 1009.81 1009.68 1009.50 1009.38 1009.55 1009.54 1009.28 1009.32 1009.32 1009.64 1009.58 1009.70 1009.37 1008.74 1008.27 1007.51 1008.13 1007.67 1008.82 1009.40 1010.35 1011.21 1011.72 1012.21 1012.68 1013.32 1013.62 1014.11 1014.65 1015.18 1015.42
1016.29 1016.03 1015.81 1014.69 1014.23 1013.71 1013.71 1013.44 1013.15 1012.49 1012.45 1012.59 1012.89 1012.63 1012.08 1011.67 1010.97 1010.29 1009.88 1009.45 1009.01 1008.83 1009.03 1008.92 1008.74 1008.72 1008.85 1009.21 1009.32 1009.31 1009.20 1008.70 1008.02 1007.30 1007.45 1006.89 1008.02 1008.75 1009.68 1010.66 1011.28 1011.73 1012.53 1013.14 1013.65 1014.09 1014.43 1014.97 1015.37
1016.93 1016.84 1016.35 1015.37 1014.80 1014.53 1014.73 1014.37 1014.07 1013.15 1013.16 1013.67 1014.22 1014.07 1013.70 1013.01 1012.28 1011.79 1011.17 1010.24 1008.97 1008.29 1008.45 1008.72 1008.40 1008.67 1008.51 1008.62 1008.98 1008.90 1008.86 1008.37 1008.09 1006.86 1006.58 1006.30 1007.48 1008.38 1009.38 1010.27 1010.97 1011.51 1012.18 1012.80 1013.43 1014.12 1014.47 1014.93 1015.32
1017.65 1017.26 1016.66 1016.00 1015.59 1015.29 1015.22 1015.38 1015.51 1015.67 1015.63 1015.68 1015.89 1015.57 1015.14 1014.67 1014.03 1013.10 1011.97 1010.83 1009.84 1008.46 1008.21 1008.33 1008.24 1008.33 1008.09 1008.46 1008.58 1008.34 1008.27 1007.88 1007.41 1007.09 1006.63 1006.44 1007.79 1008.26 1009.22 1009.99 1010.81 1011.10 1011.91 1012.70 1013.29 1013.98 1014.58 1014.72 1015.23
1017.75 1017.65 1017.07 1016.31 1015.95 1016.29 1016.25 1016.25 1016.73 1017.09 1016.85 1016.89 1017.08 1016.94 1016.33 1015.62 1014.81 1013.66 1012.38 1011.30 1010.27 1009.33 1008.49 1008.19 1007.99 1007.90 1008.04 1008.35 1008.32 1007.87 1007.92 1007.18 1006.83 1006.94 1006.41 1006.17 1007.20 1008.58 1009.02 1010.15 1010.82 1011.13 1012.14 1012.63 1013.11 1013.86 1014.39 1014.90 1015.17
1018.10 1017.85 1017.15 1016.44 1016.32 1016.30 1016.35 1017.41 1017.93 1017.94 1018.44 1018.57 1018.70 1018.48 1017.76 1016.32 1014.55 1013.16 1011.87 1011.30 1010.43 1009.72 1009.11 1008.35 1007.82 1007.63 1007.64 1007.93 1007.61 1007.24 1007.17 1006.88 1006.65 1006.76 1006.51 1006.94 1007.60 1007.88 1008.96 1010.11 1010.72 1011.26 1012.30 1012.81 1012.94 1013.51 1014.26 1014.80 1015.18
1018.21 1017.89 1017.63 1017.35 1016.62 1016.10 1016.33 1018.08 1018.38 1018.63 1019.06 1019.60 1019.45 1019.59 1018.82 1017.95 1016.08 1013.69 1011.60 1011.03 1010.37 1009.69 1008.89 1008.40 1007.79 1007.27 1007.16 1007.29 1007.04 1006.87 1006.80 1006.75 1006.39 1006.25 1006.86 1006.78 1007.23 1008.23 1008.79 1009.44 1010.62 1011.21 1011.55 1012.19 1012.86 1013.16 1013.78 1014.76 1015.26
1017.97 1018.13 1017.90 1017.19 1017.34 1017.22 1017.15 1018.74 1019.31 1019.77 1020.22 1020.35 1020.32 1020.06 1019.52 1018.34 1016.54 1014.50 1012.32 1011.06 1010.18 1009.41 1008.88 1008.43 1007.86 1007.23 1006.92 1006.58 1006.53 1006.47 1006.58 1006.68 1006.58 1006.69 1006.85 1007.08 1007.91 1008.79 1008.82 1009.45 1010.49 1011.41 1012.04 1012.60 1012.94 1013.37 1013.87 1014.37 1015.07
1018.70 1018.10 1017.85 1017.60 1017.60 1017.82 1017.85 1019.13 1021.48 1021.17 1021.10 1021.27 1021.14 1021.04 1020.28 1019.04 1017.48 1015.30 1013.38 1011.62 1009.64 1009.28 1009.09 1008.88 1008.38 1007.57 1007.30 1006.34 1005.88 1006.31 1006.55 1006.88 1006.84 1006.96 1007.70 1008.82 1008.93 1009.66 1009.42 1010.20 1011.06 1012.14 1012.77 1013.32 1013.27 1014.30 1014.86 1015.20 1015.73
1019.03 1018.07 1017.74 1018.06 1018.26 1018.85 1019.21 1019.98 1022.39 1023.19 1024.30 1023.73 1023.05 1022.12 1021.16 1019.68 1018.00 1016.10 1014.65 1013.18 1011.42 1010.36 1009.70 1009.54 1009.16 1008.55 1008.20 1007.48 1006.82 1006.93 1007.25 1007.72 1007.98 1008.31 1009.00 1009.98 1010.91 1011.57 1011.13 1011.42 1012.00 1013.41 1014.00 1014.63 1014.73 1015.27 1015.79 1016.80 1017.66
1019.85 1020.05 1020.39 1020.09 1020.21 1020.39 1019.93 1020.91 1023.55 1024.85 1025.49 1025.57 1024.66 1023.31 1022.03 1020.67 1018.98 1017.37 1016.19 1014.93 1013.70 1012.54 1011.76 1010.89 1010.21 1009.71 1009.32 1008.99 1008.32 1008.54 1008.79 1009.54 1009.51 1010.16 1010.80 1011.17 1012.28 1012.75 1013.25 1013.80 1013.90 1014.23 1015.16 1015.84 1016.28 1017.03 1017.52 1018.53 1019.12
1022.47 1022.71 1023.31 1022.55 1021.87 1021.26 1020.75 1022.36 1023.88 1025.15 1026.12 1026.19 1025.60 1024.54 1023.21 1021.61 1019.90 1018.84 1017.90 1016.78 1015.53 1014.54 1013.67 1012.68 1011.82 1011.28 1010.83 1010.54 1010.34 1009.99 1010.51 1011.02 1011.54 1012.04 1012.29 1012.87 1013.54 1014.96 1015.51 1015.05 1015.25 1015.98 1016.54 1017.05 1017.28 1018.49 1019.45 1020.43 1020.71
1023.29 1023.82 1023.83 1024.25 1023.40 1022.69 1022.11 1022.91 1023.93 1024.81 1026.52 1026.47 1025.82 1024.66 1023.32 1021.95 1021.07 1020.25 1019.22 1018.27 1017.21 1016.05 1015.20 1014.54 1013.61 1013.33 1012.84 1012.54 1012.07 1011.44 1012.28 1012.55 1013.14 1013.92 1014.04 1014.22 1015.32 1016.45 1016.22 1016.84 1017.31 1017.74 1018.12 1018.84 1019.17 1019.86 1020.89 1021.26 1023.34
1024.01 1024.45 1024.32 1024.52 1024.59 1024.33 1023.83 1024.95 1026.56 1026.23 1026.48 1026.73 1026.24 1025.15 1024.32 1023.67 1022.56 1021.37 1020.38 1019.52 1018.48 1017.64 1016.91 1016.14 1015.55 1015.42 1015.15 1014.78 1013.42 1013.38 1013.85 1014.29 1015.09 1015.50 1015.89 1016.40 1017.00 1017.57 1017.77 1018.56 1018.95 1018.90 1020.24 1020.84 1021.10 1021.05 1022.53 1023.41 1024.53
1024.76 1025.13 1025.27 1025.17 1025.10 1025.71 1026.14 1027.28 1028.04 1028.33 1028.75 1028.63 1027.41 1026.09 1025.70 1024.50 1023.53 1022.31 1021.54 1020.53 1019.67 1018.79 1018.31 1017.88 1017.25 1017.37 1017.39 1016.45 1015.04 1014.75 1015.15 1015.95 1016.73 1016.72 1017.99 1018.19 1018.53 1019.17 1019.51 1020.25 1020.86 1021.32 1022.00 1022.97 1022.73 1023.18 1023.82 1024.28 1025.45
1024.93 1025.98 1026.60 1026.45 1025.47 1026.60 1026.98 1027.87 1028.28 1028.84 1029.45 1029.05 1028.14 1027.26 1026.58 1025.81 1024.40 1023.35 1022.43 1021.67 1020.73 1020.25 1019.90 1018.97 1018.80 1019.33 1019.19 1017.75 1016.19 1015.88 1016.63 1017.91 1018.25 1018.93 1019.57 1020.01 1020.20 1021.36 1021.55 1022.24 1022.43 1022.87 1023.61 1024.27 1023.94 1024.39 1025.11 1026.33 1026.73
Wind_Speed
12 11 2 4 3 2 5 8 7 9 7 6 3 2 5 3 1 4 6 8 8 4 9 10 16 17 17 16 17 17 18 17 17 16 17 18 18 19 18 16 15 15 16 16 15 16 16 15 12
5 7 4 1 4 4 6 10 12 16 12 11 3 4 5 3 6 5 5 12 9 1 11 10 13 17 17 16 18 16 17 18 17 17 17 18 18 17 20 17 16 14 16 17 16 16 15 13 11
8 5 3 4 5 10 6 7 17 5 8 1 4 2 5 3 7 5 5 9 13 15 7 10 13 17 17 18 19 19 18 18 18 18 18 18 18 17 16 16 15 17 16 17 17 16 14 15 15
4 6 4 3 13 5 9 10 10 11 6 5 2 8 7 7 5 3 6 9 10 13 15 12 15 18 19 18 19 21 21 20 18 19 19 19 18 17 16 15 15 15 16 16 17 17 16 17 14
4 2 3 6 10 6 11 9 9 5 1 3 5 4 7 5 8 9 9 8 8 9 10 14 7 15 17 20 19 21 21 21 20 19 19 19 18 16 15 14 13 16 17 16 17 17 17 15 15
3 2 3 8 10 8 8 6 5 5 5 6 6 3 4 6 10 6 8 8 7 8 9 10 16 21 11 18 21 21 21 21 21 20 21 20 19 17 16 14 13 15 16 16 17 16 15 14 13
6 2 5 6 10 9 8 7 2 2 3 3 1 4 5 6 7 5 6 7 7 7 8 8 8 12 19 16 14 18 20 21 22 21 21 21 19 18 16 14 12 14 14 15 18 16 13 13 12
3 4 4 5 6 17 4 5 3 1 4 2 2 4 3 4 7 6 7 8 7 6 6 6 5 7 10 9 11 13 18 18 19 19 18 16 16 16 15 13 13 14 14 16 16 15 13 12 10
4 2 4 5 3 7 9 8 6 6 2 3 3 2 5 9 7 9 7 6 6 5 5 5 5 5 5 9 8 11 13 15 15 15 14 13 10 12 15 12 13 14 13 13 13 13 12 10 9
5 5 8 8 1 5 8 7 7 6 7 4 5 6 10 10 7 7 7 8 4 5 5 2 3 3 3 3 7 8 6 8 11 10 11 10 10 10 11 12 12 13 13 14 14 14 12 9 4
5 5 9 16 6 5 7 9 8 8 2 3 9 9 9 8 9 9 5 3 7 3 3 2 2 1 1 2 1 3 4 5 7 11 10 10 8 6 6 6 6 5 9 7 11 10 6 7 5
6 6 7 7 7 9 8 8 9 7 10 7 10 7 6 10 9 7 5 6 8 9 7 6 5 3 2 2 2 3 4 5 7 9 12 9 7 8 7 7 7 5 4 6 6 5 6 7 7
7 6 7 10 9 10 12 9 8 14 12 11 11 11 10 9 11 8 8 7 8 9 9 8 5 5 4 3 3 3 2 4 6 9 13 11 10 10 9 8 8 6 5 5 5 6 5 5 6
6 8 10 10 14 13 15 17 4 10 9 11 13 15 11 9 10 9 7 7 8 7 8 5 5 5 4 4 5 4 2 4 7 4 11 15 11 10 9 9 9 8 6 4 6 6 6 5 5
10 13 13 15 9 8 9 5 6 13 6 9 9 7 7 6 8 8 8 8 9 7 7 6 6 6 5 6 5 4 5 6 4 3 13 13 14 13 11 8 8 8 6 6 4 4 4 4 4
6 2 2 8 12 6 8 8 8 10 6 12 17 14 14 16 14 8 8 8 9 6 6 6 5 6 5 5 5 4 5 6 4 7 9 15 9 13 11 9 8 8 7 5 4 5 4 4 4
4 7 11 7 11 13 10 14 10 13 10 14 13 15 16 17 18 18 17 17 9 8 5 4 5 7 6 5 5 5 6 7 7 4 6 5 11 14 11 7 7 9 8 7 5 2 4 3 3
13 15 9 13 10 8 8 10 12 17 15 13 15 17 17 18 19 21 20 18 17 7 4 4 4 7 6 3 5 4 5 6 5 5 9 17 9 14 12 9 5 6 7 6 4 5 2 3 4
15 13 19 19 14 10 9 9 14 10 16 17 18 19 20 22 21 19 18 17 15 11 6 6 5 8 3 2 4 3 3 4 3 3 9 14 11 9 9 7 7 5 3 8 8 4 5 2 4
13 19 16 11 18 17 5 10 11 14 16 14 16 18 20 24 27 25 22 15 14 11 9 8 7 7 5 3 4 3 3 3 3 4 7 8 13 15 13 10 9 9 4 3 7 6 3 2 3
15 9 14 21 18 6 3 4 13 15 15 17 18 19 20 21 24 25 20 12 13 11 8 11 11 7 6 5 4 2 2 0 2 5 5 8 12 12 11 14 10 9 7 7 5 5 6 4 2
12 8 19 19 7 2 2 3 16 16 15 19 20 21 22 23 24 21 19 13 12 12 7 10 10 6 5 6 6 7 4 3 2 7 5 7 12 10 12 11 7 6 4 5 4 4 3 4 4
9 20 14 11 2 1 3 5 7 13 18 25 24 23 23 22 22 21 21 21 14 11 7 6 6 9 11 9 6 5 3 3 3 5 9 12 13 12 6 8 6 5 6 8 10 8 8 5 4
18 7 3 2 3 6 9 4 6 10 14 18 19 21 22 23 23 21 21 21 20 16 10 9 9 12 12 10 10 10 9 6 8 9 10 9 9 8 14 13 14 12 11 10 11 13 15 11 11
18 8 5 8 7 4 3 9 1 6 9 11 17 19 20 19 19 20 21 20 20 19 17 12 13 14 13 13 15 14 15 11 14 11 10 12 9 11 14 12 13 13 14 14 14 16 17 14 13
7 5 4 5 1 4 6 3 3 7 7 11 13 14 16 17 18 19 19 18 19 19 19 17 16 14 14 14 14 16 16 9 12 13 12 13 13 12 14 16 17 18 16 16 17 15 14 14 14
8 6 3 1 3 2 3 1 11 17 13 14 15 18 18 19 18 18 17 17 16 16 19 19 18 16 14 14 13 19 16 17 16 17 15 14 15 13 18 19 18 19 19 18 17 15 16 18 11
5 3 4 3 5 5 3 2 4 21 22 18 18 17 16 17 17 17 16 16 15 15 15 18 18 16 13 12 15 17 19 20 18 18 21 20 18 18 19 19 19 21 19 17 16 16 16 15 11
5 4 3 3 3 2 3 4 3 9 11 13 15 16 15 16 16 15 14 14 15 14 15 16 17 15 12 11 18 21 21 21 19 20 18 19 20 19 20 19 19 19 18 14 16 17 17 18 15
5 4 1 2 3 2 1 2 3 6 8 10 14 16 14 14 13 13 14 14 15 15 15 16 16 11 8 12 20 24 24 21 21 20 20 19 21 18 18 18 19 18 17 16 18 18 16 16 14
Wind_Direction
321 313 315 32 86 134 220 230 239 281 284 224 195 130 133 161 84 181 209 359 3 106 171 169 167 167 166 166 162 156 156 159 164 160 158 152 149 145 144 140 139 143 145 145 145 141 137 134 136
308 311 33 50 137 223 239 206 247 236 249 325 253 105 75 74 50 86 23 339 352 5 161 174 174 173 170 170 161 162 162 160 167 164 164 159 158 155 153 153 148 153 153 151 149 144 140 138 143
303 161 87 162 205 221 233 193 224 279 274 296 226 60 95 38 30 91 341 12 27 16 162 169 179 180 176 173 171 167 167 165 168 167 166 164 163 158 158 156 159 156 158 156 153 146 139 136 141
331 0 339 219 241 263 240 288 314 303 299 48 316 89 71 345 76 33 18 30 40 21 24 165 185 188 182 180 180 177 169 171 172 169 169 171 169 164 163 165 167 168 157 159 157 148 144 140 144
10 63 239 239 251 267 278 261 289 259 201 359 17 346 92 41 67 36 29 38 50 38 33 27 323 201 193 185 185 182 177 175 173 173 172 171 170 172 170 172 179 173 159 166 156 151 145 147 143
315 122 234 237 249 254 268 272 324 335 353 347 51 32 113 172 73 39 39 52 26 61 48 33 29 10 284 196 191 186 181 183 175 176 175 176 172 167 162 162 159 162 157 158 156 153 149 151 147
161 356 235 264 264 278 286 313 169 229 353 21 169 105 167 92 54 59 60 60 59 22 53 49 31 17 358 323 223 188 187 186 183 180 180 178 172 168 164 162 162 161 157 160 154 152 151 152 153
133 130 246 255 274 287 246 334 162 134 261 315 96 137 256 278 353 359 51 39 57 47 34 46 54 34 13 334 299 229 188 191 187 185 185 177 169 168 161 161 165 164 161 156 157 152 153 157 165
40 350 291 269 281 289 345 354 333 340 357 326 307 159 239 292 66 34 17 17 17 12 42 17 52 58 39 343 321 324 222 191 187 185 188 171 176 175 167 163 169 166 166 186 148 156 159 153 155
139 180 227 210 22 308 320 347 321 10 329 300 318 327 339 339 15 55 21 344 347 330 343 70 32 55 55 33 341 307 291 213 193 186 183 182 179 178 178 164 173 170 175 168 168 167 162 143 142
230 238 269 285 306 3 317 323 328 350 284 319 311 317 321 324 334 337 350 316 297 293 311 195 217 185 58 100 225 304 298 259 201 182 178 183 174 171 179 164 168 171 185 171 175 164 162 159 152
319 290 300 306 337 343 324 311 312 282 272 282 285 281 297 310 305 290 305 313 300 294 276 286 203 213 232 154 185 237 276 330 210 189 179 176 174 172 178 166 165 167 167 165 159 154 168 169 165
291 301 314 317 315 300 301 292 269 288 287 283 286 287 285 285 284 287 276 278 270 274 277 269 197 216 218 216 229 258 289 285 331 200 182 179 177 177 171 170 169 170 171 156 153 158 171 181 179
294 316 304 299 291 281 271 270 255 265 258 268 266 263 256 247 256 263 265 248 255 250 265 267 209 220 209 227 219 255 272 228 237 285 198 184 176 173 177 175 171 174 176 156 163 165 174 189 173
290 292 291 281 278 255 266 274 245 269 304 287 292 272 283 265 276 261 251 234 234 241 244 255 220 226 203 231 242 202 234 253 272 177 244 192 180 173 169 173 174 173 169 158 156 150 161 175 178
273 274 325 308 314 314 334 282 286 295 314 25 24 20 22 9 340 310 297 261 234 226 234 255 271 218 227 229 236 234 205 237 248 248 222 193 178 162 160 168 172 164 166 156 158 158 157 165 182
335 306 300 300 334 325 319 306 301 300 8 30 12 9 5 356 352 347 341 343 268 223 220 259 286 234 232 242 241 233 224 241 230 244 152 133 174 157 159 173 170 166 165 163 152 132 145 157 160
297 301 289 295 315 343 334 347 31 25 29 24 13 3 356 349 340 331 328 329 332 249 211 255 273 260 255 240 261 246 237 229 227 222 188 177 178 163 155 150 169 168 158 146 140 142 161 168 159
293 311 311 304 311 358 341 315 352 47 28 20 13 1 349 343 329 325 320 320 322 324 279 261 269 273 267 210 248 250 195 239 202 199 145 130 129 131 136 145 153 130 178 167 160 137 165 166 151
319 312 308 301 331 313 175 12 60 42 38 21 13 2 350 339 335 327 314 308 309 305 297 302 270 263 254 191 231 209 189 231 172 164 128 167 148 147 138 150 148 160 159 198 163 143 128 141 184
335 316 326 309 319 317 160 118 28 11 30 7 11 2 352 342 331 328 324 303 299 301 314 327 284 262 264 239 226 242 122 224 153 118 151 135 127 133 143 151 172 181 173 177 175 151 148 143 179
321 340 309 307 335 321 101 159 31 351 349 6 5 357 348 342 337 335 345 309 295 298 307 306 306 325 318 291 206 192 184 201 218 174 132 128 141 156 153 138 143 163 153 154 162 183 165 154 158
261 317 302 299 256 265 77 75 348 358 355 354 354 351 344 340 340 342 350 345 299 294 314 349 353 17 1 326 199 177 155 188 139 115 83 53 51 27 136 133 109 87 75 77 79 63 51 29 73
330 320 115 195 85 38 2 94 8 7 345 339 342 343 342 342 344 352 358 359 11 17 26 13 17 32 20 32 48 61 75 80 79 82 75 63 54 44 45 63 76 71 66 61 65 71 72 68 70
359 22 4 11 18 16 45 57 197 346 4 342 333 335 337 343 348 1 2 4 7 14 13 15 27 36 32 39 59 64 70 67 81 77 78 78 64 50 51 57 78 74 78 74 76 73 68 65 73
320 100 119 172 165 272 26 6 191 75 22 343 339 336 338 345 358 0 3 7 8 17 19 15 25 30 40 47 61 66 73 71 72 74 80 78 72 68 68 69 69 77 75 78 79 74 70 70 67
316 34 226 132 282 295 153 113 142 3 353 348 347 348 348 354 356 360 4 11 12 20 23 20 25 27 35 53 68 71 74 74 75 73 73 75 78 76 72 69 70 70 69 67 75 81 74 66 59
91 292 23 23 11 333 305 63 292 337 344 343 344 343 342 350 356 3 10 13 16 24 27 28 29 29 31 54 68 77 73 70 72 75 72 73 74 70 71 72 71 68 67 68 70 75 73 75 68
12 2 330 279 140 171 314 302 254 309 327 333 323 332 347 352 358 3 12 15 20 24 29 33 34 26 35 67 78 78 72 70 70 71 71 74 74 71 72 71 71 73 72 72 76 74 77 73 69
140 199 145 79 303 63 228 285 272 327 338 335 330 340 352 2 357 9 18 25 24 23 30 33 34 25 40 67 81 78 79 77 74 74 73 73 75 68 72 71 73 74 73 68 72 73 73 72 68